LANDSAT 9

Last updated on Mon Sep 07 2026 00:02:46 GMT+0000 (Coordinated Universal Time)

1 49260U 21088A 26249.63899013 .00000152 00000+0 43867-4 0 9991 2 49260 98.2214 318.8016 0001458 102.6320 257.5042 14.57106926262868
UTC large
Height (km)
Speed (km/s)
/
Latitude / Longitude
Inclination (degrees)
Orbital Period (minutes)
Azimuth
Elevation
Range (km)
Doppler Factor

Next 0 passes for location: London (51.5072 / 0.1276)

No passes found over London.
LANDSAT 9